M I D A S
Marine Information and Data Acquisition System
Tripno 293 of the Zeeleeuw from 2002-07-05 05:22:39 to 2002-07-05 12:30:10
Back to CruiseResearch ActivitiesStationsMapUnderway DataData graphs

EquipmentUnitsComment
TimeDGPSUTC
LatitudeDGPSDM.mWGS84
LongitudeDGPSDM.mWGS84
HeadingGyrodeg 
SOGDGPSknotsSpeed over ground
COGDGPSdegCourse over ground
DepthEcho soundermeters200 kHz
Missing or incorrect values are displayed as -999
Navigation data collected by the RV Zeeleeuw from 2002-07-05 05:22:39 to 2002-07-05 12:30:10
                                                                                    Next 1000 lines
Time Latitude Longitude Heading SOG COG Depth
2002-07-05 05:22:48 51°14.266 2°55.257 317.2 8.3 314.8 10.8
2002-07-05 05:22:54 51°14.275 2°55.241 316.2 8.4 313.6 11
2002-07-05 05:22:58 51°14.282 2°55.229 314.8 8.4 312.6 11
2002-07-05 05:23:03 51°14.289 2°55.215 313.3 8.5 310.8 11
2002-07-05 05:23:08 51°14.297 2°55.2 311.3 8.6 308.9 10.8
2002-07-05 05:23:13 51°14.304 2°55.184 308.8 8.8 306.9 10.7
2002-07-05 05:23:18 51°14.311 2°55.168 307.3 8.9 305.4 10.9
2002-07-05 05:23:23 51°14.318 2°55.151 307.7 9 304.7 11
2002-07-05 05:23:28 51°14.326 2°55.135 308.8 9.2 304.7 10.7
2002-07-05 05:23:33 51°14.334 2°55.118 310.3 9.5 306.2 10.4
2002-07-05 05:23:40 51°14.346 2°55.094 311 9.7 307.4 10.6
2002-07-05 05:23:45 51°14.354 2°55.076 311.3 10 308 11.1
2002-07-05 05:23:49 51°14.361 2°55.062 311.3 10.2 308.2 11
2002-07-05 05:23:54 51°14.371 2°55.043 311.3 10.5 308.5 10.7
2002-07-05 05:23:58 51°14.379 2°55.028 311.3 10.8 309 10.1
2002-07-05 05:24:03 51°14.389 2°55.01 312.5 11.1 310 10.6
2002-07-05 05:24:08 51°14.399 2°54.991 313.8 11.3 311.3 10.6
2002-07-05 05:24:15 51°14.414 2°54.964 314 11.5 311.5 10.6
2002-07-05 05:24:19 51°14.423 2°54.948 312.8 11.6 311.3 10.6
2002-07-05 05:24:24 51°14.432 2°54.927 308.3 11.7 307.5 10.4
2002-07-05 05:24:28 51°14.439 2°54.909 303.5 11.7 304 10.6
2002-07-05 05:24:33 51°14.445 2°54.885 297.5 11.7 297 10.6
2002-07-05 05:24:38 51°14.451 2°54.861 291.7 11.7 291.4 10.6
2002-07-05 05:24:44 51°14.455 2°54.831 286.7 11.7 286.1 10.6
2002-07-05 05:24:49 51°14.458 2°54.805 283.2 11.7 282.1 10.6
2002-07-05 05:24:54 51°14.46 2°54.78 279.3 11.7 278.6 10.6
2002-07-05 05:24:59 51°14.461 2°54.754 276.3 11.8 275.4 10.6
2002-07-05 05:25:03 51°14.461 2°54.733 273.2 11.8 272 10.5
2002-07-05 05:25:08 51°14.46 2°54.707 269.7 11.8 269.1 10.6
2002-07-05 05:25:13 51°14.458 2°54.681 265.5 11.8 264.6 10.5
2002-07-05 05:25:19 51°14.455 2°54.65 261.2 11.8 261.7 10.5
2002-07-05 05:25:23 51°14.451 2°54.63 257.2 11.8 256.8 10.5
2002-07-05 05:25:29 51°14.446 2°54.6 256 11.8 254.9 10.5
2002-07-05 05:25:33 51°14.442 2°54.579 255.5 11.8 254.2 10.5
2002-07-05 05:25:38 51°14.438 2°54.554 256.2 11.9 254.6 10.5
2002-07-05 05:25:43 51°14.434 2°54.528 257.3 11.9 255.8 10.5
2002-07-05 05:25:48 51°14.43 2°54.503 256.8 11.9 255.7 10.5
2002-07-05 05:25:53 51°14.426 2°54.478 255.3 11.9 254.5 10.3
2002-07-05 05:25:59 51°14.42 2°54.447 254.5 11.9 253.9 10.3
2002-07-05 05:26:04 51°14.415 2°54.423 253.5 11.9 252.4 10.2
2002-07-05 05:26:09 51°14.409 2°54.398 252.7 11.9 252 10.2
2002-07-05 05:26:13 51°14.405 2°54.378 252.2 11.9 251.1 10.1
2002-07-05 05:26:18 51°14.4 2°54.353 252.7 11.9 251.3 10.1
2002-07-05 05:26:23 51°14.395 2°54.328 253.8 11.9 252.1 10
2002-07-05 05:26:29 51°14.389 2°54.297 255.2 11.9 252.9 10.1
2002-07-05 05:26:33 51°14.386 2°54.277 254.5 11.9 253.2 10
2002-07-05 05:26:39 51°14.379 2°54.248 252 11.8 251.4 10
2002-07-05 05:26:43 51°14.373 2°54.229 246.5 11.7 246.3 9.9
2002-07-05 05:26:48 51°14.365 2°54.206 243 11.7 242.4 9.9
2002-07-05 05:26:53 51°14.356 2°54.184 241 11.7 239.7 10
2002-07-05 05:26:59 51°14.346 2°54.157 241.2 11.7 239.5 9.9
2002-07-05 05:27:03 51°14.34 2°54.139 242 11.8 240.6 9.9
2002-07-05 05:27:08 51°14.333 2°54.116 243.5 11.8 241.1 9.9
2002-07-05 05:27:13 51°14.326 2°54.093 245.2 11.8 243.3 9.9
2002-07-05 05:27:19 51°14.317 2°54.064 245.3 11.9 244 9.9
2002-07-05 05:27:23 51°14.311 2°54.046 245 11.8 243.9 9.9
2002-07-05 05:27:28 51°14.304 2°54.023 244.2 11.8 243.2 9.9
2002-07-05 05:27:33 51°14.296 2°53.999 243.8 11.9 242.6 9.9
2002-07-05 05:27:38 51°14.288 2°53.976 243 11.9 241.4 9.9
2002-07-05 05:27:43 51°14.28 2°53.953 243 11.9 241.2 9.9
2002-07-05 05:27:48 51°14.272 2°53.93 242.5 11.9 241.1 9.9
2002-07-05 05:27:53 51°14.264 2°53.907 242.7 11.9 241 9.9
2002-07-05 05:27:58 51°14.256 2°53.884 243 11.9 241.3 9.9
2002-07-05 05:28:03 51°14.248 2°53.861 243.2 11.9 241.5 10
2002-07-05 05:28:08 51°14.241 2°53.838 243 11.9 242.1 9.9
2002-07-05 05:28:14 51°14.231 2°53.81 243.3 11.9 241.8 10
2002-07-05 05:28:18 51°14.225 2°53.792 243.3 11.9 241.8 10
2002-07-05 05:28:23 51°14.217 2°53.768 243.2 11.9 241.6 10
2002-07-05 05:28:28 51°14.209 2°53.745 243.8 11.9 242.5 10
2002-07-05 05:28:33 51°14.201 2°53.722 243.5 11.9 242.2 10.1
2002-07-05 05:28:38 51°14.194 2°53.698 244.3 11.9 242.8 10.1
2002-07-05 05:28:43 51°14.187 2°53.675 244.5 11.9 242.9 10.1
2002-07-05 05:28:48 51°14.179 2°53.652 244.3 11.9 242.5 10.1
2002-07-05 05:28:54 51°14.17 2°53.624 244.3 11.9 243 10.1
2002-07-05 05:28:58 51°14.164 2°53.605 244.5 11.9 242.5 10.1
2002-07-05 05:29:03 51°14.157 2°53.582 244.8 11.9 243 10.2
2002-07-05 05:29:08 51°14.149 2°53.558 244.8 11.9 243 10.3
2002-07-05 05:29:13 51°14.142 2°53.534 244.8 11.9 243 10.2
2002-07-05 05:29:18 51°14.134 2°53.511 244.8 12 243.6 10.3
2002-07-05 05:29:24 51°14.125 2°53.482 244.7 12 242.8 10.3
2002-07-05 05:29:29 51°14.118 2°53.458 245 12 243.5 10.3
2002-07-05 05:29:34 51°14.11 2°53.435 244.5 11.9 242.8 10.3
2002-07-05 05:29:38 51°14.105 2°53.416 244.7 11.9 243.5 10.3
2002-07-05 05:29:43 51°14.097 2°53.393 244.8 11.9 243.4 10.3
2002-07-05 05:29:48 51°14.09 2°53.369 245.2 12 243.8 10.4
2002-07-05 05:29:53 51°14.082 2°53.345 245.2 11.9 243.5 10.4
2002-07-05 05:29:59 51°14.073 2°53.317 245.2 11.9 243.5 10.4
2002-07-05 05:30:03 51°14.068 2°53.298 245 11.9 243.7 10.5
2002-07-05 05:30:08 51°14.06 2°53.274 245 11.9 243.4 10.5
2002-07-05 05:30:13 51°14.053 2°53.251 244.8 11.9 243.3 10.6
2002-07-05 05:30:18 51°14.046 2°53.227 245 11.9 243.6 10.6
2002-07-05 05:30:23 51°14.038 2°53.204 244.3 12 242.9 10.6
2002-07-05 05:30:28 51°14.03 2°53.18 244.8 12 243.2 10.6
2002-07-05 05:30:33 51°14.022 2°53.156 244.5 12.1 242.9 10.7
2002-07-05 05:30:39 51°14.013 2°53.126 244.8 12.4 243 10.7
2002-07-05 05:30:43 51°14.007 2°53.106 245 12.6 243.4 10.8
2002-07-05 05:30:49 51°13.997 2°53.076 245.3 12.8 243.4 10.8
2002-07-05 05:30:53 51°13.991 2°53.055 245.7 12.9 244 10.8
2002-07-05 05:30:58 51°13.983 2°53.029 245.8 13 244.2 10.8
2002-07-05 05:31:03 51°13.976 2°53.003 246 13.2 244.4 10.8
2002-07-05 05:31:08 51°13.968 2°52.976 245.7 13.2 244.3 10.8
2002-07-05 05:31:14 51°13.958 2°52.944 246 13.3 244.2 10.9
2002-07-05 05:31:18 51°13.952 2°52.923 245.5 13.4 244.1 10.9
2002-07-05 05:31:23 51°13.943 2°52.896 245.3 13.4 243.6 11
2002-07-05 05:31:28 51°13.935 2°52.869 244.8 13.5 243.2 10.9
2002-07-05 05:31:33 51°13.926 2°52.843 244.5 13.5 243.2 11
2002-07-05 05:31:38 51°13.917 2°52.817 243.7 13.5 242.1 11
2002-07-05 05:31:44 51°13.907 2°52.785 244.2 13.5 242.5 11
2002-07-05 05:31:48 51°13.899 2°52.764 243.2 13.5 241.6 11
2002-07-05 05:31:53 51°13.891 2°52.737 243.7 13.5 241.7 11.1
2002-07-05 05:31:59 51°13.88 2°52.706 242.7 13.5 241.5 11
2002-07-05 05:32:03 51°13.873 2°52.685 243.2 13.6 241.7 11
2002-07-05 05:32:08 51°13.864 2°52.659 243.7 13.6 241.8 11
2002-07-05 05:32:13 51°13.855 2°52.632 243.3 13.6 241.9 11.1
2002-07-05 05:32:18 51°13.846 2°52.605 243.8 13.6 242 11.2
2002-07-05 05:32:23 51°13.838 2°52.579 243.5 13.6 242.3 11.2
2002-07-05 05:32:28 51°13.829 2°52.553 244 13.6 242.1 11.2
2002-07-05 05:32:33 51°13.82 2°52.526 244 13.6 242.6 11.2
2002-07-05 05:32:38 51°13.812 2°52.499 244 13.6 242.7 11.2
2002-07-05 05:32:43 51°13.803 2°52.473 244 13.6 242.3 11.2
2002-07-05 05:32:48 51°13.794 2°52.446 243.8 13.6 242.6 11.3
2002-07-05 05:32:53 51°13.785 2°52.419 243.8 13.6 242.2 11.3
2002-07-05 05:32:59 51°13.775 2°52.387 243.7 13.6 242.4 11.3
2002-07-05 05:33:03 51°13.767 2°52.366 243.5 13.6 242.1 11.3
2002-07-05 05:33:08 51°13.759 2°52.339 244 13.6 242.6 11.3
2002-07-05 05:33:13 51°13.75 2°52.313 243.3 13.6 242 11.3
2002-07-05 05:33:18 51°13.741 2°52.287 243.5 13.6 242.1 11.3
2002-07-05 05:33:23 51°13.732 2°52.26 243.2 13.6 242 11.3
2002-07-05 05:33:28 51°13.723 2°52.234 243 13.5 241.4 11.3
2002-07-05 05:33:33 51°13.714 2°52.207 243.3 13.6 241.8 11.4
2002-07-05 05:33:39 51°13.704 2°52.175 243.3 13.6 241.9 11.4
2002-07-05 05:33:43 51°13.696 2°52.155 243.3 13.6 241.6 11.2
2002-07-05 05:33:48 51°13.688 2°52.128 243.5 13.6 242 11.4
2002-07-05 05:33:54 51°13.677 2°52.096 243 13.5 241.5 11.3
2002-07-05 05:33:58 51°13.67 2°52.075 243.2 13.6 242 11.4
2002-07-05 05:34:03 51°13.661 2°52.049 243.7 13.6 242 11.4
2002-07-05 05:34:08 51°13.652 2°52.022 244 13.6 242.4 11.4
2002-07-05 05:34:14 51°13.642 2°51.99 243.7 13.6 242.2 11.4
2002-07-05 05:34:18 51°13.635 2°51.969 244.3 13.5 242.4 11.5
2002-07-05 05:34:23 51°13.626 2°51.943 243.3 13.5 241.8 11.4
2002-07-05 05:34:28 51°13.617 2°51.916 243.8 13.6 242 11.4
2002-07-05 05:34:33 51°13.608 2°51.89 243 13.6 241.5 11.4
2002-07-05 05:34:39 51°13.597 2°51.858 243 13.6 241.3 11.4
2002-07-05 05:34:43 51°13.59 2°51.837 243.2 13.5 241.2 11.4
2002-07-05 05:34:49 51°13.579 2°51.806 242.3 13.5 241 11.3
2002-07-05 05:34:53 51°13.571 2°51.785 242.8 13.5 240.9 11.4
2002-07-05 05:34:59 51°13.56 2°51.753 242 13.6 240.9 11.5
2002-07-05 05:35:03 51°13.553 2°51.732 242.5 13.6 240.7 11.5
2002-07-05 05:35:09 51°13.542 2°51.701 242.7 13.6 241 11.5
2002-07-05 05:35:13 51°13.535 2°51.68 242.7 13.6 241 11.4
2002-07-05 05:35:18 51°13.525 2°51.654 243 13.6 241.2 11.5
2002-07-05 05:35:23 51°13.516 2°51.627 242.7 13.6 241.1 11.6
2002-07-05 05:35:28 51°13.507 2°51.601 242.8 13.6 241 11.6
2002-07-05 05:35:33 51°13.498 2°51.574 242.8 13.6 241.3 11.6
2002-07-05 05:35:38 51°13.489 2°51.548 243.2 13.6 241.1 11.7
2002-07-05 05:35:43 51°13.48 2°51.522 242.7 13.6 241.3 11.6
2002-07-05 05:35:48 51°13.471 2°51.495 243 13.6 241.5 11.7
2002-07-05 05:35:54 51°13.46 2°51.464 243 13.6 241.2 11.7
2002-07-05 05:35:59 51°13.451 2°51.437 242.5 13.6 241.1 11.7
2002-07-05 05:36:03 51°13.443 2°51.416 242.8 13.7 240.9 11.7
2002-07-05 05:36:08 51°13.434 2°51.39 242.5 13.7 241 11.7
2002-07-05 05:36:13 51°13.425 2°51.363 242.8 13.6 240.9 11.8
2002-07-05 05:36:18 51°13.416 2°51.337 242.5 13.6 240.7 11.8
2002-07-05 05:36:24 51°13.405 2°51.306 242.3 13.6 240.9 11.7
2002-07-05 05:36:28 51°13.398 2°51.285 243 13.6 241.4 11.8
2002-07-05 05:36:33 51°13.389 2°51.259 243 13.6 240.8 11.7
2002-07-05 05:36:38 51°13.381 2°51.232 242.8 13.6 241.7 11.8
2002-07-05 05:36:43 51°13.37 2°51.206 242.7 13.6 240.8 11.8
2002-07-05 05:36:48 51°13.361 2°51.179 242.7 13.6 241.2 11.8
2002-07-05 05:36:53 51°13.352 2°51.153 242.7 13.6 241.1 11.9
2002-07-05 05:36:59 51°13.341 2°51.122 242.7 13.6 240.8 11.8
2002-07-05 05:37:03 51°13.334 2°51.1 242.7 13.5 241.4 11.9
2002-07-05 05:37:08 51°13.325 2°51.074 242.8 13.6 240.9 11.9
2002-07-05 05:37:13 51°13.316 2°51.047 243.7 13.6 242 11.9
2002-07-05 05:37:18 51°13.307 2°51.021 243.2 13.6 241.3 11.9
2002-07-05 05:37:24 51°13.296 2°50.989 243.2 13.6 241.6 11.9
2002-07-05 05:37:28 51°13.289 2°50.968 243.7 13.6 241.6 11.9
2002-07-05 05:37:34 51°13.279 2°50.937 243 13.6 241.6 12
2002-07-05 05:37:38 51°13.272 2°50.915 243.2 13.6 241.5 11.9
2002-07-05 05:37:44 51°13.261 2°50.884 243.3 13.6 241.4 11.9
2002-07-05 05:37:48 51°13.254 2°50.862 242.8 13.6 241.6 11.9
2002-07-05 05:37:53 51°13.244 2°50.836 243.2 13.6 241.2 11.9
2002-07-05 05:37:58 51°13.236 2°50.81 242.8 13.5 241.4 11.9
2002-07-05 05:38:03 51°13.226 2°50.784 242.2 13.5 240.6 11.9
2002-07-05 05:38:08 51°13.217 2°50.757 243.2 13.6 241.3 11.9
2002-07-05 05:38:14 51°13.206 2°50.726 242.8 13.6 241.3 12
2002-07-05 05:38:18 51°13.199 2°50.705 242.5 13.6 241.1 12
2002-07-05 05:38:23 51°13.191 2°50.679 243.5 13.5 241.9 12
2002-07-05 05:38:28 51°13.181 2°50.653 242.7 13.5 241 12
2002-07-05 05:38:33 51°13.172 2°50.626 243.2 13.6 241.6 12.1
2002-07-05 05:38:39 51°13.162 2°50.595 242.7 13.5 241.4 12.1
2002-07-05 05:38:44 51°13.152 2°50.569 242.7 13.5 241 12
2002-07-05 05:38:49 51°13.143 2°50.543 243.3 13.5 241.3 12.1
2002-07-05 05:38:53 51°13.136 2°50.522 243 13.5 241.2 12
2002-07-05 05:38:59 51°13.126 2°50.49 243.3 13.5 241.5 12.1
2002-07-05 05:39:03 51°13.118 2°50.469 243.5 13.5 241.7 12.1
2002-07-05 05:39:08 51°13.109 2°50.443 242.5 13.4 241.4 12.1
2002-07-05 05:39:13 51°13.1 2°50.417 242.7 13.5 240.9 12.1
2002-07-05 05:39:18 51°13.091 2°50.391 242.7 13.5 240.6 12.1
2002-07-05 05:39:23 51°13.082 2°50.365 242.7 13.5 240.8 12.1
2002-07-05 05:39:28 51°13.073 2°50.339 243.3 13.5 241.4 12.1
2002-07-05 05:39:33 51°13.064 2°50.313 243 13.4 240.9 12.2
2002-07-05 05:39:38 51°13.055 2°50.287 243.2 13.4 241.6 12.2
2002-07-05 05:39:43 51°13.046 2°50.261 243.2 13.4 241.2 12.2
2002-07-05 05:39:48 51°13.037 2°50.235 243 13.4 241.2 12.2
2002-07-05 05:39:54 51°13.026 2°50.204 243 13.4 241.3 12.2
2002-07-05 05:39:59 51°13.018 2°50.178 243.5 13.4 241.5 12.3
2002-07-05 05:40:04 51°13.009 2°50.152 243.2 13.4 241.5 12.2
2002-07-05 05:40:08 51°13.002 2°50.131 243.7 13.4 241.9 12.2
2002-07-05 05:40:13 51°12.993 2°50.105 243.5 13.5 242 12.2
2002-07-05 05:40:18 51°12.984 2°50.079 243.3 13.5 241.7 12.3
2002-07-05 05:40:24 51°12.974 2°50.047 243.7 13.5 242 12.3
2002-07-05 05:40:29 51°12.965 2°50.021 243.7 13.5 241.8 12.3
2002-07-05 05:40:34 51°12.956 2°49.995 243 13.4 241.6 12.3
2002-07-05 05:40:39 51°12.948 2°49.968 243.3 13.5 241.8 12.3
2002-07-05 05:40:43 51°12.94 2°49.948 243 13.5 241.2 12.3
2002-07-05 05:40:48 51°12.932 2°49.922 242.7 13.5 241.3 12.3
2002-07-05 05:40:53 51°12.923 2°49.896 242.7 13.5 241 12.3
2002-07-05 05:40:59 51°12.912 2°49.865 242.5 13.5 241.2 12.4
2002-07-05 05:41:03 51°12.905 2°49.844 242.5 13.5 240.9 12.3
2002-07-05 05:41:09 51°12.894 2°49.813 242.2 13.4 240.3 12.4
2002-07-05 05:41:13 51°12.887 2°49.792 242.5 13.4 240.7 12.4
2002-07-05 05:41:18 51°12.877 2°49.766 242.8 13.5 240.6 12.3
2002-07-05 05:41:23 51°12.868 2°49.74 242.5 13.5 240.8 12.4
2002-07-05 05:41:28 51°12.86 2°49.714 243 13.5 241.3 12.4
2002-07-05 05:41:33 51°12.85 2°49.688 242.8 13.5 240.8 12.4
2002-07-05 05:41:39 51°12.84 2°49.657 243 13.5 241.6 12.4
2002-07-05 05:41:44 51°12.83 2°49.631 242.3 13.4 240.7 12.4
2002-07-05 05:41:49 51°12.821 2°49.605 242.7 13.4 240.7 12.4
2002-07-05 05:41:54 51°12.812 2°49.579 242.7 13.4 241 12.5
2002-07-05 05:41:58 51°12.804 2°49.558 243 13.4 240.7 12.5
2002-07-05 05:42:03 51°12.796 2°49.532 243.3 13.4 241.4 12.5
2002-07-05 05:42:08 51°12.787 2°49.506 243.5 13.4 241.6 12.5
2002-07-05 05:42:13 51°12.779 2°49.48 243.5 13.4 241.8 12.6
2002-07-05 05:42:19 51°12.768 2°49.448 243.5 13.4 241.6 12.5
2002-07-05 05:42:24 51°12.759 2°49.422 243.3 13.5 241.5 12.6
2002-07-05 05:42:28 51°12.752 2°49.401 242.8 13.5 241.4 12.6
2002-07-05 05:42:33 51°12.742 2°49.376 242.8 13.5 240.8 12.6
2002-07-05 05:42:39 51°12.732 2°49.345 242.3 13.4 240.7 12.5
2002-07-05 05:42:44 51°12.722 2°49.319 242.3 13.4 240.4 12.6
2002-07-05 05:42:49 51°12.714 2°49.293 243 13.4 241 12.6
2002-07-05 05:42:54 51°12.704 2°49.267 242.8 13.4 240.9 12.6
2002-07-05 05:42:59 51°12.696 2°49.241 243.2 13.4 241.6 12.6
2002-07-05 05:43:03 51°12.688 2°49.22 243 13.5 240.9 12.7
2002-07-05 05:43:08 51°12.68 2°49.194 243.7 13.4 241.8 12.7
2002-07-05 05:43:13 51°12.67 2°49.168 242.8 13.4 241 12.7
2002-07-05 05:43:19 51°12.66 2°49.136 244.3 13.4 242.2 12.7
2002-07-05 05:43:24 51°12.651 2°49.11 243.2 13.4 241.4 12.7
2002-07-05 05:43:28 51°12.644 2°49.089 243.8 13.4 241.8 12.8
2002-07-05 05:43:33 51°12.636 2°49.063 243.5 13.4 241.7 12.8
2002-07-05 05:43:38 51°12.627 2°49.037 243.5 13.4 241.7 12.8
2002-07-05 05:43:44 51°12.616 2°49.006 243.5 13.4 241.7 12.8
2002-07-05 05:43:48 51°12.609 2°48.986 243.3 13.4 241.5 12.8
2002-07-05 05:43:54 51°12.598 2°48.954 243.5 13.4 241.5 12.8
2002-07-05 05:43:59 51°12.589 2°48.928 243.2 13.4 241.5 12.8
2002-07-05 05:44:03 51°12.582 2°48.908 243.2 13.4 241.4 12.8
2002-07-05 05:44:08 51°12.573 2°48.881 243.7 13.4 241.8 12.9
2002-07-05 05:44:13 51°12.565 2°48.855 243.5 13.4 241.8 12.9
2002-07-05 05:44:19 51°12.554 2°48.823 244 13.4 242 12.9
2002-07-05 05:44:23 51°12.547 2°48.802 243.7 13.4 241.9 12.9
2002-07-05 05:44:28 51°12.539 2°48.776 244 13.4 242.2 12.9
2002-07-05 05:44:33 51°12.53 2°48.75 243 13.4 241.3 13
2002-07-05 05:44:39 51°12.519 2°48.719 242.8 13.4 241.3 12.9
2002-07-05 05:44:44 51°12.509 2°48.693 242.7 13.4 240.9 13
2002-07-05 05:44:48 51°12.502 2°48.673 242.2 13.4 240.5 13
2002-07-05 05:44:53 51°12.492 2°48.647 242.2 13.4 240.3 13
2002-07-05 05:44:58 51°12.483 2°48.621 241.7 13.4 240.1 13
2002-07-05 05:45:03 51°12.474 2°48.596 242 13.4 240.3 13
2002-07-05 05:45:09 51°12.463 2°48.565 242.7 13.4 240.4 13.1
2002-07-05 05:45:14 51°12.454 2°48.539 242.8 13.4 240.8 13
2002-07-05 05:45:18 51°12.447 2°48.518 243 13.4 241.2 13.1
2002-07-05 05:45:24 51°12.437 2°48.486 242.8 13.4 240.9 13.1
2002-07-05 05:45:28 51°12.43 2°48.465 243.5 13.4 241.4 13.1
2002-07-05 05:45:34 51°12.419 2°48.435 243 13.4 241.1 13
2002-07-05 05:45:39 51°12.41 2°48.408 243 13.4 241.6 13.1
2002-07-05 05:45:43 51°12.403 2°48.388 243.8 13.4 241.6 13.1
2002-07-05 05:45:49 51°12.393 2°48.357 242.8 13.4 241.5 13.1
2002-07-05 05:45:54 51°12.385 2°48.33 243.5 13.4 241.7 12.9
2002-07-05 05:45:58 51°12.378 2°48.309 243.2 13.4 241.4 13.1
2002-07-05 05:46:03 51°12.369 2°48.283 243 13.4 241.4 13.1
2002-07-05 05:46:08 51°12.36 2°48.257 243.3 13.4 241.4 13.1
2002-07-05 05:46:13 51°12.351 2°48.231 242.8 13.4 241 13.1
2002-07-05 05:46:19 51°12.341 2°48.2 243 13.4 241 13.1
2002-07-05 05:46:24 51°12.332 2°48.174 242.8 13.4 241 13.2
2002-07-05 05:46:29 51°12.323 2°48.148 242.8 13.4 241 13.2
2002-07-05 05:46:33 51°12.316 2°48.128 242.8 13.4 240.9 13.2
2002-07-05 05:46:38 51°12.307 2°48.102 242.7 13.3 240.8 13.2
2002-07-05 05:46:43 51°12.298 2°48.076 242.7 13.4 240.7 13.2
2002-07-05 05:46:49 51°12.288 2°48.045 242.7 13.3 241 13.3
2002-07-05 05:46:54 51°12.278 2°48.02 242.3 13.3 240.4 13.3
2002-07-05 05:46:59 51°12.269 2°47.994 243.2 13.3 241.3 13.3
2002-07-05 05:47:04 51°12.26 2°47.968 242.7 13.3 241 13.3
2002-07-05 05:47:08 51°12.253 2°47.947 243.2 13.3 241.3 13.3
2002-07-05 05:47:13 51°12.244 2°47.921 243.8 13.3 241.8 13.3
2002-07-05 05:47:18 51°12.235 2°47.896 243.2 13.3 241.3 13.3
2002-07-05 05:47:24 51°12.225 2°47.864 243.3 13.4 241.8 13.3
2002-07-05 05:47:29 51°12.216 2°47.838 243.7 13.4 241.5 13.3
2002-07-05 05:47:34 51°12.207 2°47.813 243.3 13.3 241.6 13.3
2002-07-05 05:47:38 51°12.2 2°47.792 243 13.4 241 13.3
2002-07-05 05:47:43 51°12.191 2°47.766 243.3 13.3 241.4 13.3
2002-07-05 05:47:48 51°12.182 2°47.741 242.3 13.4 240.6 13.3
2002-07-05 05:47:53 51°12.173 2°47.714 242.8 13.3 240.9 13.3
2002-07-05 05:47:58 51°12.164 2°47.689 242 13.3 240.5 13
2002-07-05 05:48:04 51°12.154 2°47.658 242.2 13.3 240.3 13.3
2002-07-05 05:48:08 51°12.146 2°47.638 242.2 13.3 240.2 13.4
2002-07-05 05:48:14 51°12.136 2°47.607 242 13.3 240.1 13.3
2002-07-05 05:48:18 51°12.128 2°47.587 241.7 13.3 240.1 13.4
2002-07-05 05:48:23 51°12.119 2°47.561 241.8 13.3 240 13.4
2002-07-05 05:48:29 51°12.108 2°47.531 241.8 13.3 239.8 13.4
2002-07-05 05:48:34 51°12.099 2°47.505 242.2 13.4 240 13.4
2002-07-05 05:48:39 51°12.089 2°47.48 241.7 13.3 239.9 13.3
2002-07-05 05:48:44 51°12.08 2°47.454 241.3 13.3 239.8 13.4
2002-07-05 05:48:49 51°12.071 2°47.429 242.3 13.4 240.1 13.4
2002-07-05 05:48:53 51°12.063 2°47.408 242.7 13.4 240.7 13.4
2002-07-05 05:48:59 51°12.053 2°47.377 243.7 13.3 241.4 13.5
2002-07-05 05:49:03 51°12.046 2°47.356 243.8 13.3 241.8 13.4
2002-07-05 05:49:08 51°12.037 2°47.33 244.3 13.4 242.3 13.4
2002-07-05 05:49:13 51°12.028 2°47.304 244.2 13.3 242.2 13.4
2002-07-05 05:49:19 51°12.018 2°47.273 243.8 13.3 242.1 13.4
2002-07-05 05:49:24 51°12.009 2°47.247 244.5 13.3 242.4 13.4
2002-07-05 05:49:28 51°12.002 2°47.226 244.7 13.3 242.8 13.5
2002-07-05 05:49:33 51°11.994 2°47.2 244.7 13.3 242.9 13.5
2002-07-05 05:49:39 51°11.984 2°47.168 245 13.3 243.1 13.4
2002-07-05 05:49:43 51°11.977 2°47.147 244.5 13.3 243 13.4
2002-07-05 05:49:48 51°11.969 2°47.121 245 13.3 243.1 13.4
2002-07-05 05:49:54 51°11.958 2°47.09 245 13.3 243.2 13.4
2002-07-05 05:49:58 51°11.952 2°47.069 245 13.3 243.3 13.5
2002-07-05 05:50:03 51°11.943 2°47.043 244.7 13.3 243.1 13.3
2002-07-05 05:50:08 51°11.934 2°47.017 244.7 13.3 242.8 13.3
2002-07-05 05:50:14 51°11.924 2°46.985 245 13.3 243.2 13.5
2002-07-05 05:50:18 51°11.918 2°46.964 245 13.3 243 13.5
2002-07-05 05:50:24 51°11.908 2°46.933 244.7 13.3 243.1 13.5
2002-07-05 05:50:28 51°11.901 2°46.912 245 13.3 243.2 13.4
2002-07-05 05:50:33 51°11.893 2°46.886 245.3 13.3 243.3 13.4
2002-07-05 05:50:38 51°11.884 2°46.859 245.2 13.3 243.7 13.5
2002-07-05 05:50:43 51°11.876 2°46.833 245.5 13.3 243.7 13.4
2002-07-05 05:50:48 51°11.868 2°46.806 246 13.3 244.3 13.5
2002-07-05 05:50:53 51°11.861 2°46.78 246.3 13.3 244.7 13.4
2002-07-05 05:50:59 51°11.851 2°46.748 246.8 13.3 244.9 13.4
2002-07-05 05:51:04 51°11.843 2°46.721 246.7 13.3 245 13.4
2002-07-05 05:51:08 51°11.836 2°46.7 246.3 13.3 244.8 13.5
2002-07-05 05:51:13 51°11.828 2°46.673 246.2 13.3 244.8 13.5
2002-07-05 05:51:18 51°11.82 2°46.647 245.8 13.3 244.3 13.4
2002-07-05 05:51:24 51°11.811 2°46.615 245.8 13.3 244.3 13.5
2002-07-05 05:51:28 51°11.804 2°46.594 245.5 13.2 243.9 13.5
2002-07-05 05:51:33 51°11.796 2°46.568 245.5 13.3 243.7 13.6
2002-07-05 05:51:39 51°11.786 2°46.536 245.5 13.3 244 13.6
2002-07-05 05:51:44 51°11.778 2°46.51 246 13.3 244.3 13.6
2002-07-05 05:51:48 51°11.772 2°46.488 246.7 13.3 244.6 13.5
2002-07-05 05:51:53 51°11.765 2°46.462 247 13.3 245.8 13.5
2002-07-05 05:51:58 51°11.757 2°46.435 247.5 13.3 246 13.5
2002-07-05 05:52:03 51°11.75 2°46.407 248.7 13.3 246.9 13.6
2002-07-05 05:52:09 51°11.741 2°46.375 248.5 13.3 246.8 13.5
2002-07-05 05:52:14 51°11.733 2°46.348 248.5 13.3 246.8 13.6
2002-07-05 05:52:19 51°11.726 2°46.321 248.3 13.3 246.6 13.6
2002-07-05 05:52:23 51°11.72 2°46.3 248.2 13.3 246.5 13.6
2002-07-05 05:52:28 51°11.713 2°46.273 248 13.3 246.5 13.6
2002-07-05 05:52:33 51°11.705 2°46.246 247.8 13.3 246.1 13.6
2002-07-05 05:52:39 51°11.697 2°46.214 248 13.3 246.4 13.6
2002-07-05 05:52:44 51°11.689 2°46.187 248.3 13.3 246.6 13.5
2002-07-05 05:52:49 51°11.682 2°46.16 248.8 13.3 247.1 13.5
2002-07-05 05:52:54 51°11.675 2°46.133 248.8 13.3 247 13.5
2002-07-05 05:52:59 51°11.667 2°46.106 248.8 13.3 247.1 13.5
2002-07-05 05:53:04 51°11.661 2°46.079 248.5 13.3 247.2 13.5
2002-07-05 05:53:09 51°11.653 2°46.052 248.8 13.3 247 13.5
2002-07-05 05:53:14 51°11.646 2°46.025 248.3 13.2 246.8 13.5
2002-07-05 05:53:18 51°11.64 2°46.004 248 13.3 246.6 13.5
2002-07-05 05:53:23 51°11.633 2°45.977 248 13.3 246.4 13.5
2002-07-05 05:53:28 51°11.625 2°45.95 248 13.3 246.2 13.5
2002-07-05 05:53:34 51°11.616 2°45.918 248 13.3 246.3 13.4
2002-07-05 05:53:39 51°11.609 2°45.89 248.5 13.3 246.8 13.4
2002-07-05 05:53:43 51°11.603 2°45.869 248 13.3 246.5 13.4
2002-07-05 05:53:49 51°11.594 2°45.836 248.3 13.4 246.5 13.5
2002-07-05 05:53:53 51°11.588 2°45.815 248 13.4 246.4 13.5
2002-07-05 05:53:58 51°11.581 2°45.788 248.3 13.3 246.4 13.4
2002-07-05 05:54:03 51°11.574 2°45.761 248.2 13.3 246.4 13.4
2002-07-05 05:54:08 51°11.566 2°45.734 248.5 13.3 247.1 13.5
2002-07-05 05:54:14 51°11.558 2°45.701 248.8 13.3 246.7 13.4
2002-07-05 05:54:18 51°11.553 2°45.679 248.5 13.3 247.2 13.5
2002-07-05 05:54:23 51°11.545 2°45.653 248.2 13.3 246.8 13.4
2002-07-05 05:54:28 51°11.538 2°45.626 248.2 13.3 246.6 13.4
2002-07-05 05:54:34 51°11.529 2°45.593 248 13.3 246.5 13.4
2002-07-05 05:54:38 51°11.523 2°45.571 248.3 13.3 246.6 13.4
2002-07-05 05:54:43 51°11.516 2°45.545 248.2 13.3 246.6 13.4
2002-07-05 05:54:49 51°11.507 2°45.512 248.3 13.3 246.5 13.4
2002-07-05 05:54:54 51°11.5 2°45.485 248.8 13.3 247.2 13.4
2002-07-05 05:54:59 51°11.493 2°45.458 248.2 13.3 246.6 13.4
2002-07-05 05:55:03 51°11.487 2°45.436 248.7 13.3 247 13.4
2002-07-05 05:55:09 51°11.479 2°45.404 248.8 13.3 247 13.4
2002-07-05 05:55:13 51°11.473 2°45.383 248.5 13.2 247 13.4
2002-07-05 05:55:19 51°11.464 2°45.35 248.2 13.3 246.7 13.3
2002-07-05 05:55:23 51°11.458 2°45.329 248.7 13.3 246.9 13.3
2002-07-05 05:55:28 51°11.451 2°45.302 247.8 13.3 246.3 13.3
2002-07-05 05:55:34 51°11.442 2°45.27 248.2 13.3 246.4 13.3
2002-07-05 05:55:39 51°11.435 2°45.243 248 13.3 246.5 13.3
2002-07-05 05:55:43 51°11.429 2°45.221 248.2 13.2 246.5 13.3
2002-07-05 05:55:48 51°11.421 2°45.195 248.2 13.3 246.5 13.3
2002-07-05 05:55:53 51°11.414 2°45.168 248.5 13.3 246.9 13.3
2002-07-05 05:55:58 51°11.407 2°45.141 248.2 13.3 246.7 13.3
2002-07-05 05:56:03 51°11.4 2°45.114 248.3 13.2 246.7 13.3
2002-07-05 05:56:08 51°11.393 2°45.087 248.5 13.3 246.9 13.3
2002-07-05 05:56:13 51°11.385 2°45.06 248.2 13.3 246.7 13.3
2002-07-05 05:56:19 51°11.376 2°45.028 248.2 13.3 246.7 13.3
2002-07-05 05:56:24 51°11.369 2°45.001 248.2 13.3 246.4 13.3
2002-07-05 05:56:28 51°11.363 2°44.979 248.3 13.2 246.8 13.3
2002-07-05 05:56:33 51°11.356 2°44.953 248.2 13.2 246.4 13.3
2002-07-05 05:56:39 51°11.347 2°44.921 248.2 13.2 246.7 13.3
2002-07-05 05:56:43 51°11.341 2°44.899 248 13.2 246.6 13.1
2002-07-05 05:56:49 51°11.333 2°44.867 248.5 13.3 246.7 13.3
2002-07-05 05:56:54 51°11.325 2°44.84 248.8 13.2 247.1 13.3
2002-07-05 05:56:58 51°11.32 2°44.818 249 13.2 247.4 13.3
2002-07-05 05:57:03 51°11.313 2°44.791 249.5 13.2 247.8 13.3
2002-07-05 05:57:09 51°11.305 2°44.759 249.5 13.2 247.8 13.3
2002-07-05 05:57:13 51°11.299 2°44.737 249.7 13.2 248.1 13.3
2002-07-05 05:57:19 51°11.291 2°44.705 250 13.2 248 13.3
2002-07-05 05:57:24 51°11.284 2°44.677 250 13.2 248.4 13.2
2002-07-05 05:57:28 51°11.279 2°44.656 249.8 13.2 248.3 13.3
2002-07-05 05:57:33 51°11.272 2°44.629 250 13.2 248.4 13.3
2002-07-05 05:57:39 51°11.264 2°44.596 250 13.3 248.6 13.3
2002-07-05 05:57:43 51°11.259 2°44.574 250.5 13.3 248.8 13.3
2002-07-05 05:57:49 51°11.251 2°44.541 250.2 13.3 248.8 13.2
2002-07-05 05:57:53 51°11.245 2°44.52 250 13.2 248.5 13.2
2002-07-05 05:57:59 51°11.238 2°44.487 250.3 13.2 248.7 13.2
2002-07-05 05:58:03 51°11.232 2°44.465 250.3 13.2 248.6 13.2
2002-07-05 05:58:08 51°11.226 2°44.438 250.8 13.3 249.2 13.2
2002-07-05 05:58:14 51°11.218 2°44.405 251 13.2 249.4 13.2
2002-07-05 05:58:18 51°11.213 2°44.383 250.7 13.2 249.4 13.2
2002-07-05 05:58:24 51°11.205 2°44.351 250.3 13.2 249 13.2
2002-07-05 05:58:28 51°11.199 2°44.329 250.3 13.2 249 13.2
2002-07-05 05:58:33 51°11.193 2°44.302 250.2 13.2 248.8 13.2
2002-07-05 05:58:39 51°11.185 2°44.27 250 13.2 248.7 13.2
2002-07-05 05:58:43 51°11.18 2°44.248 250 13.2 248.6 13.2
2002-07-05 05:58:48 51°11.173 2°44.221 250.2 13.2 248.4 13.2
2002-07-05 05:58:54 51°11.166 2°44.188 250.3 13.1 249 13.2
2002-07-05 05:58:59 51°11.159 2°44.161 250.5 13.1 249.2 13.2
2002-07-05 05:59:03 51°11.154 2°44.139 250.5 13.1 249.3 13.2
2002-07-05 05:59:09 51°11.146 2°44.107 250.5 13.2 249.3 13.2
2002-07-05 05:59:13 51°11.141 2°44.085 250.5 13.2 249.2 13.3
2002-07-05 05:59:19 51°11.133 2°44.052 250.3 13.2 249 13.3
2002-07-05 05:59:23 51°11.128 2°44.031 249.8 13.2 248.5 13.3
2002-07-05 05:59:28 51°11.121 2°44.004 249.2 13.2 247.7 13.3
2002-07-05 05:59:34 51°11.112 2°43.972 249.5 13.2 247.7 13.2
2002-07-05 05:59:38 51°11.106 2°43.95 249.8 13.3 247.5 13.2
2002-07-05 05:59:44 51°11.099 2°43.918 250 13.2 248 13.2
2002-07-05 05:59:49 51°11.092 2°43.89 250 13.2 248.2 13.2
2002-07-05 05:59:53 51°11.087 2°43.869 250.8 13.2 248.8 13.2
2002-07-05 05:59:58 51°11.08 2°43.841 250.5 13.2 249 13.2
2002-07-05 06:00:03 51°11.074 2°43.814 251 13.2 249.4 13.2
2002-07-05 06:00:08 51°11.067 2°43.787 250.8 13.2 249 13.2
2002-07-05 06:00:14 51°11.059 2°43.755 250.5 13.1 249.1 13.2
2002-07-05 06:00:19 51°11.052 2°43.727 250.2 13.2 248.9 13.2
2002-07-05 06:00:24 51°11.046 2°43.7 250.5 13.2 248.7 13.2
2002-07-05 06:00:28 51°11.04 2°43.678 250 13.2 248.6 13.2
2002-07-05 06:00:33 51°11.034 2°43.652 249.7 13.1 248 13.3
2002-07-05 06:00:39 51°11.026 2°43.62 249.7 13.1 248.1 13.2
2002-07-05 06:00:44 51°11.019 2°43.593 249.7 13.1 248 13.2
2002-07-05 06:00:49 51°11.012 2°43.566 249.7 13.1 248 13.2
2002-07-05 06:00:54 51°11.005 2°43.539 249.7 13.1 248.3 13.1
2002-07-05 06:00:59 51°10.999 2°43.512 250 13.1 248.3 13.1
2002-07-05 06:01:03 51°10.994 2°43.491 250.2 13.1 248.7 13.2
2002-07-05 06:01:08 51°10.987 2°43.464 250.3 13.1 248.5 13.1
2002-07-05 06:01:14 51°10.979 2°43.432 250.7 13.1 249 13.2
2002-07-05 06:01:19 51°10.973 2°43.405 250.5 13.1 249.3 13.1
2002-07-05 06:01:23 51°10.968 2°43.383 250.5 13 249.1 13.1
2002-07-05 06:01:28 51°10.961 2°43.357 249.8 13 248.8 13.1
2002-07-05 06:01:33 51°10.954 2°43.33 249.8 13.1 248.4 13.1
2002-07-05 06:01:38 51°10.947 2°43.303 250.3 13.1 248.6 13.1
2002-07-05 06:01:43 51°10.941 2°43.276 249.8 13.1 248.4 13.2
2002-07-05 06:01:48 51°10.934 2°43.249 250 13.1 248.7 13.2
2002-07-05 06:01:53 51°10.927 2°43.222 250.2 13.1 248.4 13.2
2002-07-05 06:01:58 51°10.921 2°43.196 249.7 13.1 248.2 13.1
2002-07-05 06:02:03 51°10.914 2°43.169 249.8 13.1 247.7 13.2
2002-07-05 06:02:08 51°10.907 2°43.142 249.3 13.1 247.5 13.1
2002-07-05 06:02:13 51°10.901 2°43.115 249.2 13.1 247.5 13.1
2002-07-05 06:02:19 51°10.892 2°43.083 249.3 13.1 247.5 13.2
2002-07-05 06:02:24 51°10.886 2°43.056 250 13.1 248.2 13.2
2002-07-05 06:02:28 51°10.88 2°43.035 250.3 13.1 248.3 13.1
2002-07-05 06:02:33 51°10.873 2°43.008 250.7 13.1 248.7 13.1
2002-07-05 06:02:39 51°10.865 2°42.975 251 13.1 249 13.1
2002-07-05 06:02:43 51°10.86 2°42.954 250.8 13.1 248.8 13.1
2002-07-05 06:02:48 51°10.854 2°42.927 250.7 13.1 248.9 13.1
2002-07-05 06:02:54 51°10.846 2°42.895 250.3 13.1 248.8 13.1
2002-07-05 06:02:58 51°10.84 2°42.873 250.2 13.1 248.3 13.1
2002-07-05 06:03:03 51°10.834 2°42.846 250.3 13.1 248.5 13.1
2002-07-05 06:03:08 51°10.827 2°42.819 250.2 13.1 248.4 13.1
2002-07-05 06:03:14 51°10.819 2°42.787 250.5 13.1 248.3 13.1
2002-07-05 06:03:19 51°10.812 2°42.76 250 13.1 248.4 13
2002-07-05 06:03:23 51°10.807 2°42.739 250.3 13.1 248.4 13.1
2002-07-05 06:03:28 51°10.8 2°42.712 250.5 13.1 248.5 13.1
2002-07-05 06:03:33 51°10.794 2°42.685 251.3 13.1 249.4 13.1
2002-07-05 06:03:39 51°10.787 2°42.652 252 13.1 249.7 13.1
2002-07-05 06:03:43 51°10.782 2°42.63 252.8 13.1 250.9 13.1
2002-07-05 06:03:48 51°10.776 2°42.603 253.2 13.1 251.4 13.1
2002-07-05 06:03:53 51°10.771 2°42.576 253.5 13.1 251.4 13.1
2002-07-05 06:03:58 51°10.766 2°42.548 253.5 13.1 251.9 13.1
2002-07-05 06:04:03 51°10.76 2°42.521 253.2 13 251.4 13
2002-07-05 06:04:08 51°10.754 2°42.493 253.2 13.1 251.5 13.1
2002-07-05 06:04:13 51°10.748 2°42.466 252.7 13.1 251.1 13.1
2002-07-05 06:04:19 51°10.741 2°42.433 253.2 13.1 251.5 13.1
2002-07-05 06:04:24 51°10.735 2°42.406 253.2 13.1 251.5 13.1
2002-07-05 06:04:29 51°10.73 2°42.378 253.7 13.1 251.8 13.1
2002-07-05 06:04:33 51°10.725 2°42.356 253.7 13.1 251.9 13.1
2002-07-05 06:04:39 51°10.719 2°42.324 253 13.1 251.6 13.1
2002-07-05 06:04:43 51°10.714 2°42.302 253.2 13.1 251.5 13.1
2002-07-05 06:04:49 51°10.707 2°42.269 253.7 13.1 251.8 13.1
2002-07-05 06:04:53 51°10.703 2°42.247 253.3 13.1 251.9 13.1
2002-07-05 06:04:59 51°10.696 2°42.214 253.8 13.1 252 13.1
2002-07-05 06:05:03 51°10.691 2°42.192 253.7 13.1 252.1 13.1
2002-07-05 06:05:08 51°10.686 2°42.165 253.2 13.1 251.7 13.1
2002-07-05 06:05:13 51°10.68 2°42.137 253.5 13.1 251.9 13.1
2002-07-05 06:05:18 51°10.674 2°42.11 253.2 13 251.7 13.1
2002-07-05 06:05:23 51°10.668 2°42.083 252.8 13 251.4 13.1
2002-07-05 06:05:28 51°10.662 2°42.055 252.8 13.1 251.2 13.1
2002-07-05 06:05:34 51°10.656 2°42.023 253.5 13.1 251.7 13.1
2002-07-05 06:05:38 51°10.651 2°42.001 252.8 13 251.3 13.2
2002-07-05 06:05:43 51°10.646 2°41.973 253.5 13 251.8 13.2
2002-07-05 06:05:48 51°10.64 2°41.946 253 13 251.3 13.2
2002-07-05 06:05:53 51°10.634 2°41.919 253 13 251.7 13.1
2002-07-05 06:05:59 51°10.627 2°41.886 252.7 13 251 13.1
2002-07-05 06:06:03 51°10.622 2°41.864 253.2 13.1 251.1 13.1
2002-07-05 06:06:08 51°10.617 2°41.837 253 13 251.3 13.2
2002-07-05 06:06:13 51°10.611 2°41.81 252.7 13 251.1 13.2
2002-07-05 06:06:19 51°10.604 2°41.778 253 13 251.4 13.2
2002-07-05 06:06:23 51°10.599 2°41.756 253 13.1 251.1 13.1
2002-07-05 06:06:28 51°10.594 2°41.728 253.7 13.1 251.9 13.2
2002-07-05 06:06:33 51°10.588 2°41.701 253.3 13 251.8 13.2
2002-07-05 06:06:39 51°10.581 2°41.668 253.5 13 252.2 13.1
2002-07-05 06:06:43 51°10.577 2°41.646 253.7 13 252.3 13
2002-07-05 06:06:49 51°10.57 2°41.613 253.5 13 251.9 13.1
2002-07-05 06:06:53 51°10.566 2°41.591 253.3 13 252 13.2
2002-07-05 06:06:58 51°10.56 2°41.564 253.8 13 252 13.1
2002-07-05 06:07:03 51°10.554 2°41.537 253.5 13 251.9 13.2
2002-07-05 06:07:09 51°10.548 2°41.504 253.2 13 251.8 13.2
2002-07-05 06:07:14 51°10.542 2°41.477 253.2 13 251.4 13.2
2002-07-05 06:07:18 51°10.537 2°41.455 252.8 13.1 251 13.2
2002-07-05 06:07:23 51°10.532 2°41.428 253 13 251.4 13.1
2002-07-05 06:07:28 51°10.525 2°41.401 253 13 250.8 13.2
2002-07-05 06:07:33 51°10.52 2°41.373 252.8 13 251.2 13.4
2002-07-05 06:07:39 51°10.513 2°41.341 252.8 13 251 13.2
2002-07-05 06:07:43 51°10.508 2°41.319 252.7 13 250.9 13.2
2002-07-05 06:07:49 51°10.501 2°41.286 252.7 13 251.1 13.3
2002-07-05 06:07:54 51°10.495 2°41.259 252.7 13 250.8 13.3
2002-07-05 06:07:58 51°10.49 2°41.238 252.5 13 250.9 13.1
2002-07-05 06:08:03 51°10.484 2°41.211 252.7 13 250.8 13.3
2002-07-05 06:08:09 51°10.477 2°41.178 252.8 13 251.2 13.3
2002-07-05 06:08:13 51°10.473 2°41.156 253.2 13.1 251.6 13.3
2002-07-05 06:08:19 51°10.466 2°41.123 253.5 13 251.5 13.3
2002-07-05 06:08:23 51°10.461 2°41.101 253.5 13 251.9 13.3
2002-07-05 06:08:29 51°10.454 2°41.069 253.2 13 251.5 13.3
2002-07-05 06:08:33 51°10.45 2°41.046 253.5 13 251.8 13.3
2002-07-05 06:08:39 51°10.443 2°41.014 253 13.1 251.3 13.3
2002-07-05 06:08:42 51°10.44 2°40.997 253.5 13 251.6 13.5
2002-07-05 06:08:48 51°10.433 2°40.965 252.8 13 251.3 13.4
2002-07-05 06:08:53 51°10.427 2°40.937 253.3 13 251.6 13.5
2002-07-05 06:08:58 51°10.421 2°40.91 252.5 13 251.2 13.4
2002-07-05 06:09:03 51°10.415 2°40.883 253.3 13.1 251.8 13.4
2002-07-05 06:09:08 51°10.409 2°40.856 252.8 13.1 251.3 13.5
2002-07-05 06:09:13 51°10.404 2°40.828 253 13 251.8 13.3
2002-07-05 06:09:19 51°10.397 2°40.795 253.3 13 252 13.2
2002-07-05 06:09:23 51°10.393 2°40.773 253.5 13 252.3 13.4
2002-07-05 06:09:28 51°10.387 2°40.746 253.2 13 252.1 13.5
2002-07-05 06:09:33 51°10.382 2°40.719 253.2 13 251.9 13.3
2002-07-05 06:09:38 51°10.376 2°40.692 253.5 13 252 13.3
2002-07-05 06:09:43 51°10.371 2°40.665 253.2 12.9 252 13.4
2002-07-05 06:09:48 51°10.365 2°40.638 253.2 12.9 252.2 13.5
2002-07-05 06:09:53 51°10.359 2°40.611 252.7 12.9 251.6 13.5
2002-07-05 06:09:58 51°10.354 2°40.584 252.8 12.9 251.7 13.5
2002-07-05 06:10:03 51°10.348 2°40.557 253 12.9 251.6 13.5
2002-07-05 06:10:08 51°10.343 2°40.53 253 12.9 251.8 13.6
2002-07-05 06:10:14 51°10.336 2°40.497 253.2 12.9 251.9 13.6
2002-07-05 06:10:18 51°10.332 2°40.475 253.3 12.9 252.2 13.4
2002-07-05 06:10:23 51°10.326 2°40.448 253 12.9 251.8 13.6
2002-07-05 06:10:28 51°10.32 2°40.421 253.2 12.9 251.9 13.5
2002-07-05 06:10:34 51°10.313 2°40.389 252.3 12.9 251.1 13.6
2002-07-05 06:10:39 51°10.308 2°40.362 251.7 12.9 250.7 13.7
2002-07-05 06:10:43 51°10.302 2°40.341 251 12.8 249.7 13.7
2002-07-05 06:10:49 51°10.295 2°40.309 250.3 12.8 249.3 13.7
2002-07-05 06:10:53 51°10.29 2°40.288 250 12.9 248.8 13.7
2002-07-05 06:10:59 51°10.282 2°40.257 249.5 12.9 248.5 13.7
2002-07-05 06:11:03 51°10.276 2°40.235 249.8 12.9 248.3 13.7
2002-07-05 06:11:09 51°10.269 2°40.204 249.7 12.9 248.5 13.6
2002-07-05 06:11:13 51°10.263 2°40.183 249.5 12.8 248.1 13.7
2002-07-05 06:11:19 51°10.255 2°40.151 250.2 12.9 248.4 13.8
2002-07-05 06:11:23 51°10.25 2°40.13 249.2 12.9 248.1 13.7
2002-07-05 06:11:28 51°10.243 2°40.104 249.7 12.9 248 13.7
2002-07-05 06:11:34 51°10.235 2°40.072 249.5 12.9 247.9 13.8
2002-07-05 06:11:39 51°10.229 2°40.046 249.5 12.9 248.1 13.8
2002-07-05 06:11:43 51°10.223 2°40.025 250 12.9 248.1 13.8
2002-07-05 06:11:48 51°10.217 2°39.998 250 12.9 248.5 13.9
2002-07-05 06:11:53 51°10.21 2°39.971 250.5 12.9 248.8 13.9
2002-07-05 06:11:58 51°10.204 2°39.945 250.3 12.9 248.9 13.9
2002-07-05 06:12:03 51°10.197 2°39.918 250.2 12.9 249 13.9
2002-07-05 06:12:08 51°10.191 2°39.892 250.3 12.9 248.7 13.9
2002-07-05 06:12:13 51°10.185 2°39.865 250 12.9 248.8 13.9
2002-07-05 06:12:19 51°10.177 2°39.833 250.2 12.9 248.7 13.9
2002-07-05 06:12:23 51°10.172 2°39.812 249.7 12.9 248.3 14
2002-07-05 06:12:29 51°10.163 2°39.781 249.3 12.9 248 13.9
2002-07-05 06:12:33 51°10.158 2°39.76 249.7 12.9 248 13.9
2002-07-05 06:12:39 51°10.15 2°39.728 249.7 12.9 248.1 13.9
2002-07-05 06:12:43 51°10.145 2°39.707 249.8 12.9 248.2 13.9
2002-07-05 06:12:49 51°10.137 2°39.675 249.7 12.9 248.2 14
2002-07-05 06:12:53 51°10.132 2°39.654 250.2 12.9 248.5 14
2002-07-05 06:12:58 51°10.125 2°39.628 249.3 12.9 247.9 14.1
2002-07-05 06:13:03 51°10.118 2°39.601 250 12.9 248.7 14
2002-07-05 06:13:08 51°10.111 2°39.575 249.8 12.9 247.9 14
2002-07-05 06:13:13 51°10.104 2°39.549 249.8 12.9 248.3 13.9
2002-07-05 06:13:19 51°10.097 2°39.518 250.2 12.9 248.4 14.1
2002-07-05 06:13:23 51°10.091 2°39.497 249.8 12.8 248.2 14.1
2002-07-05 06:13:29 51°10.084 2°39.465 250 12.9 248.6 14.2
2002-07-05 06:13:33 51°10.078 2°39.444 250.3 12.9 248.6 14.2
2002-07-05 06:13:38 51°10.072 2°39.417 249.8 12.9 248.3 14.2
2002-07-05 06:13:43 51°10.065 2°39.39 249.7 12.9 248.2 14.2
2002-07-05 06:13:48 51°10.059 2°39.364 249.7 12.9 247.9 14.2
2002-07-05 06:13:53 51°10.052 2°39.338 249.3 12.9 247.6 14.2
2002-07-05 06:13:59 51°10.044 2°39.306 249.5 12.9 247.7 14.3
2002-07-05 06:14:03 51°10.038 2°39.285 249.8 12.9 248 14.3
2002-07-05 06:14:09 51°10.031 2°39.253 249.5 12.9 248.1 14.4
2002-07-05 06:14:13 51°10.025 2°39.232 250 12.9 247.9 14.5
2002-07-05 06:14:18 51°10.019 2°39.206 249.8 12.9 248.6 14.4
2002-07-05 06:14:23 51°10.012 2°39.179 249.7 12.9 247.9 14.3
2002-07-05 06:14:28 51°10.006 2°39.153 250.2 12.9 248.6 14.5
2002-07-05 06:14:33 51°9.999 2°39.126 249.5 12.9 248 14.3
2002-07-05 06:14:39 51°9.991 2°39.095 249.7 12.9 248.1 14.5
2002-07-05 06:14:43 51°9.985 2°39.073 249.7 12.9 248.1 14.5
2002-07-05 06:14:48 51°9.979 2°39.047 250.2 12.9 248.3 14.5
2002-07-05 06:14:54 51°9.971 2°39.015 250.2 12.9 248.5 14.6
2002-07-05 06:14:58 51°9.966 2°38.994 250 12.9 248.5 14.6
2002-07-05 06:15:03 51°9.959 2°38.967 249.7 12.9 248.2 14.5
2002-07-05 06:15:08 51°9.952 2°38.94 250 12.9 248.3 14.7
2002-07-05 06:15:14 51°9.944 2°38.909 249.5 12.9 247.8 14.7
2002-07-05 06:15:18 51°9.939 2°38.887 250 12.9 248.4 14.7
2002-07-05 06:15:24 51°9.931 2°38.856 249.7 12.9 248 14.8
2002-07-05 06:15:29 51°9.924 2°38.829 249.8 12.9 248.4 14.7
2002-07-05 06:15:33 51°9.919 2°38.808 250.2 13 248.2 14.7
2002-07-05 06:15:39 51°9.911 2°38.776 249.8 12.9 248.4 14.8
2002-07-05 06:15:42 51°9.907 2°38.76 249.3 12.9 248.1 14.8
2002-07-05 06:15:48 51°9.899 2°38.728 250.2 12.9 248.1 14.8
2002-07-05 06:15:53 51°9.893 2°38.702 250.5 12.9 248.7 14.8
2002-07-05 06:15:58 51°9.886 2°38.675 249.7 12.9 248.1 14.9
2002-07-05 06:16:03 51°9.879 2°38.649 250.2 12.9 248.6 14.9
2002-07-05 06:16:09 51°9.871 2°38.617 250.2 12.9 248.1 14.9
2002-07-05 06:16:13 51°9.866 2°38.596 249.5 12.9 248.2 15
2002-07-05 06:16:18 51°9.859 2°38.569 249.8 13 247.9 15
2002-07-05 06:16:23 51°9.853 2°38.543 249.8 13 248 15.1
2002-07-05 06:16:28 51°9.846 2°38.517 249.2 12.9 247.3 15
2002-07-05 06:16:34 51°9.838 2°38.485 249.7 13 247.9 15
2002-07-05 06:16:39 51°9.831 2°38.458 249.8 13 247.8 15.1
2002-07-05 06:16:43 51°9.826 2°38.437 250.2 12.9 248.5 15.1
2002-07-05 06:16:49 51°9.818 2°38.405 250 12.9 248.3 15.2
2002-07-05 06:16:53 51°9.813 2°38.383 250.7 13 248.7 15.2
2002-07-05 06:16:59 51°9.805 2°38.351 250.5 13 248.7 15.3
2002-07-05 06:17:03 51°9.8 2°38.33 249.8 12.9 248.2 15.3
2002-07-05 06:17:08 51°9.793 2°38.304 249.8 13 248.2 15.3
2002-07-05 06:17:13 51°9.786 2°38.277 249.7 13 247.9 15.4
2002-07-05 06:17:19 51°9.778 2°38.246 249.2 12.9 247.9 15.3
2002-07-05 06:17:23 51°9.772 2°38.225 249.2 12.9 247.4 15.3
2002-07-05 06:17:28 51°9.766 2°38.198 249.8 13 247.9 15.4
2002-07-05 06:17:34 51°9.758 2°38.166 249.3 12.9 247.7 15.4
2002-07-05 06:17:38 51°9.752 2°38.145 249 12.9 247.6 15.4
2002-07-05 06:17:43 51°9.745 2°38.118 249 13 247.1 15.4
2002-07-05 06:17:48 51°9.738 2°38.092 248.8 13 247.4 15.5
2002-07-05 06:17:53 51°9.731 2°38.066 248.5 12.9 247.1 15.5
2002-07-05 06:17:59 51°9.723 2°38.034 248.8 13 247.1 15.5
2002-07-05 06:18:03 51°9.717 2°38.013 249 13 247.5 15.5
2002-07-05 06:18:09 51°9.709 2°37.981 248.8 13 247.3 15.6
2002-07-05 06:18:13 51°9.703 2°37.96 248.8 13 247.3 15.2
2002-07-05 06:18:18 51°9.697 2°37.933 249.2 13 247.5 15.6
2002-07-05 06:18:23 51°9.69 2°37.907 249.5 13 247.6 15.6
2002-07-05 06:18:28 51°9.683 2°37.88 249.7 13 247.8 15.7
2002-07-05 06:18:33 51°9.676 2°37.854 249.2 13 247.8 15.7
2002-07-05 06:18:39 51°9.668 2°37.822 249.5 13 247.6 15.7
2002-07-05 06:18:43 51°9.663 2°37.801 249.3 13 247.8 15.7
2002-07-05 06:18:49 51°9.655 2°37.769 249.3 13 247.9 15.8
2002-07-05 06:18:53 51°9.649 2°37.748 248.8 13 247.5 15.8
2002-07-05 06:18:58 51°9.642 2°37.721 249 13 247.5 15.8
2002-07-05 06:19:03 51°9.635 2°37.695 249.5 13 247.6 15.8
2002-07-05 06:19:08 51°9.629 2°37.668 249.3 13 247.9 15.9
2002-07-05 06:19:13 51°9.622 2°37.642 249.2 12.9 247.4 15.9
2002-07-05 06:19:19 51°9.613 2°37.61 248.8 13 247.3 15.9
2002-07-05 06:19:23 51°9.608 2°37.589 249 13 246.9 16
2002-07-05 06:19:29 51°9.599 2°37.558 248.2 12.9 246.7 16
2002-07-05 06:19:33 51°9.594 2°37.537 248.5 12.9 246.7 16.1
2002-07-05 06:19:38 51°9.586 2°37.51 248.8 13 246.8 16.1
2002-07-05 06:19:43 51°9.58 2°37.484 248.7 12.9 247.2 16.1
2002-07-05 06:19:48 51°9.573 2°37.458 249.2 12.9 246.9 16.2
2002-07-05 06:19:53 51°9.566 2°37.431 249.5 13 247.6 16.2
2002-07-05 06:19:59 51°9.558 2°37.4 249.7 13 247.6 16.3
2002-07-05 06:20:03 51°9.553 2°37.379 249.5 12.9 247.5 16.3
2002-07-05 06:20:08 51°9.546 2°37.352 249.5 12.9 248 16.3
2002-07-05 06:20:14 51°9.538 2°37.32 249.7 12.9 247.7 16.4
2002-07-05 06:20:18 51°9.533 2°37.299 249.3 12.9 247.7 16.4
2002-07-05 06:20:23 51°9.525 2°37.273 249.2 12.9 247.4 16.6
2002-07-05 06:20:28 51°9.519 2°37.247 248.8 12.9 247.2 16.6
2002-07-05 06:20:34 51°9.51 2°37.215 248.8 13 246.9 16.7
2002-07-05 06:20:39 51°9.503 2°37.189 248.7 12.9 247 16.7
2002-07-05 06:20:43 51°9.497 2°37.168 248.5 12.9 246.9 16.7
2002-07-05 06:20:49 51°9.489 2°37.137 249 13 247 16.8
2002-07-05 06:20:53 51°9.483 2°37.116 249.2 12.9 247.3 16.9
2002-07-05 06:20:58 51°9.476 2°37.089 249 12.9 247.1 16.8
2002-07-05 06:21:03 51°9.47 2°37.063 249.2 12.9 247.6 16.8
2002-07-05 06:21:08 51°9.462 2°37.037 248.8 12.9 247 16.9
2002-07-05 06:21:14 51°9.454 2°37.005 248.7 12.9 247.1 16.8
2002-07-05 06:21:18 51°9.448 2°36.984 248.5 12.9 246.8 16.9
2002-07-05 06:21:23 51°9.441 2°36.957 249.2 12.9 247.5 16.9
2002-07-05 06:21:28 51°9.434 2°36.931 248.8 12.9 247.4 16.9
2002-07-05 06:21:33 51°9.427 2°36.905 249.3 13 247.4 17
2002-07-05 06:21:39 51°9.42 2°36.873 249.8 12.9 248.1 16.8
2002-07-05 06:21:43 51°9.414 2°36.854 249.2 12.5 247.5 17
2002-07-05 06:21:48 51°9.408 2°36.829 248.8 12.3 247.4 17.2
2002-07-05 06:21:53 51°9.402 2°36.804 249.3 12 247.6 17.3
2002-07-05 06:21:58 51°9.395 2°36.78 249 11.8 247.3 17.3
2002-07-05 06:22:03 51°9.389 2°36.757 249.2 11.6 247.4 17.4
2002-07-05 06:22:08 51°9.383 2°36.734 249.2 11.5 247.4 17.4
2002-07-05 06:22:13 51°9.377 2°36.71 249 11.4 247.2 17.4
2002-07-05 06:22:18 51°9.371 2°36.687 248.8 11.3 247.5 17.4
2002-07-05 06:22:24 51°9.364 2°36.66 249 11.3 247.3 17.4
2002-07-05 06:22:28 51°9.359 2°36.641 249 11.3 247.2 17.5
2002-07-05 06:22:33 51°9.353 2°36.618 248.7 11.3 247.2 17.4
2002-07-05 06:22:39 51°9.345 2°36.592 248.5 11.2 246.7 17.5
2002-07-05 06:22:44 51°9.34 2°36.57 248.3 10.9 247 17.5
2002-07-05 06:22:48 51°9.335 2°36.553 248.5 10.6 246.5 17.4
2002-07-05 06:22:54 51°9.328 2°36.529 247.8 10 246.5 17.2
2002-07-05 06:22:58 51°9.324 2°36.514 248.5 9.6 246.5 17.1
2002-07-05 06:23:03 51°9.32 2°36.495 249.8 9.2 247.9 17.4
2002-07-05 06:23:08 51°9.316 2°36.477 253 8.9 250.5 17.4
2002-07-05 06:23:13 51°9.313 2°36.459 256.3 8.6 254.3 17.4
2002-07-05 06:23:19 51°9.311 2°36.437 259.8 8.4 258.4 17.5
2002-07-05 06:23:23 51°9.31 2°36.423 264.3 8.2 262.5 17.6
2002-07-05 06:23:28 51°9.309 2°36.406 267.5 7.9 265.5 17.5
2002-07-05 06:23:34 51°9.309 2°36.387 269.3 7.4 269.2 17.5
2002-07-05 06:23:38 51°9.31 2°36.374 269.8 7.1 270.4 17.6
2002-07-05 06:23:43 51°9.31 2°36.36 269.8 6.7 271.3 17.6
2002-07-05 06:23:48 51°9.31 2°36.346 269.7 6.4 271.4 17.6
2002-07-05 06:23:53 51°9.31 2°36.332 269 6.1 270.7 17.6
2002-07-05 06:23:59 51°9.31 2°36.317 268 5.8 270.3 17.6
2002-07-05 06:24:04 51°9.31 2°36.305 266.3 5.5 269.1 17.6
2002-07-05 06:24:08 51°9.309 2°36.296 264.7 5.3 267.9 17.6
2002-07-05 06:24:13 51°9.309 2°36.286 262.8 5 266.1 17.6
2002-07-05 06:24:19 51°9.308 2°36.273 261.5 4.8 264.7 17.6
2002-07-05 06:24:23 51°9.308 2°36.266 260.2 4.5 263.2 17.6
2002-07-05 06:24:28 51°9.307 2°36.257 258.5 4.3 262 17.6
2002-07-05 06:24:33 51°9.306 2°36.248 256.7 4 259.6 17.6
2002-07-05 06:24:39 51°9.304 2°36.239 254.5 3.8 258 17.6
2002-07-05 06:24:43 51°9.303 2°36.234 252.3 3.1 255.9 17.6
2002-07-05 06:24:49 51°9.302 2°36.228 249.8 2.5 253.6 17.6
2002-07-05 06:24:53 51°9.302 2°36.225 247.2 1.9 251 17.6
2002-07-05 06:24:58 51°9.301 2°36.222 245.3 1.7 250.2 17.6
2002-07-05 06:25:03 51°9.3 2°36.219 243.3 1.6 246.5 17.6
2002-07-05 06:25:08 51°9.299 2°36.216 241.3 1.5 242.6 17.6
2002-07-05 06:25:13 51°9.298 2°36.213 239.2 1.5 238.8 17.6
2002-07-05 06:25:19 51°9.297 2°36.21 237.8 1.4 236.8 17.6
2002-07-05 06:25:24 51°9.296 2°36.208 236.3 1.3 233.5 17.6
2002-07-05 06:25:28 51°9.295 2°36.207 235.5 1.3 231.9 17.6
2002-07-05 06:25:33 51°9.294 2°36.205 235 1.2 230.2 17.6
2002-07-05 06:25:38 51°9.292 2°36.203 234 1.1 228.9 17.6
2002-07-05 06:25:43 51°9.291 2°36.201 233.2 1.1 227.3 17.6
2002-07-05 06:25:48 51°9.29 2°36.2 232.8 1 224.3 17.6
2002-07-05 06:25:54 51°9.289 2°36.198 232.2 0.9 221.4 17.6
2002-07-05 06:25:59 51°9.288 2°36.197 231.7 0.9 219.9 17.6
2002-07-05 06:26:03 51°9.288 2°36.197 231 0.7 214 17.6
2002-07-05 06:26:09 51°9.287 2°36.196 230.2 0.6 208.9 17.6
2002-07-05 06:26:13 51°9.286 2°36.195 229.2 0.6 207 17.7
2002-07-05 06:26:19 51°9.285 2°36.195 228.8 0.6 207.9 17.7
2002-07-05 06:26:23 51°9.285 2°36.194 228 0.6 203.3 17.7
2002-07-05 06:26:28 51°9.284 2°36.194 227.3 0.6 202.9 17.7
2002-07-05 06:26:34 51°9.283 2°36.194 227.3 0.5 198.4 17.7
2002-07-05 06:26:39 51°9.283 2°36.193 227.2 0.5 197.1 17.6
2002-07-05 06:26:43 51°9.282 2°36.193 226.8 0.4 191 17.6
2002-07-05 06:26:49 51°9.282 2°36.193 226.2 0.4 186.3 17.7
2002-07-05 06:26:54 51°9.281 2°36.193 226.2 0.4 184.3 17.6
2002-07-05 06:26:58 51°9.281 2°36.193 226.5 0.4 185.2 17.7
2002-07-05 06:27:03 51°9.28 2°36.193 226.7 0.3 175.3 17.7
2002-07-05 06:27:08 51°9.28 2°36.193 226.5 0.3 176.5 17.7
2002-07-05 06:27:13 51°9.279 2°36.193 226.8 0.3 170.8 17.7
2002-07-05 06:27:18 51°9.279 2°36.194 226.8 0.2 155.5 17.7
2002-07-05 06:27:23 51°9.279 2°36.194 226.7 0.2 123.4 17.7
2002-07-05 06:27:28 51°9.279 2°36.195 226.8 0.2 101.8 17.5
2002-07-05 06:27:33 51°9.279 2°36.195 227 0.3 88 17.7
2002-07-05 06:27:39 51°9.279 2°36.197 227.2 0.4 79.2 17.6
2002-07-05 06:27:43 51°9.28 2°36.197 227.5 0.4 71.3 17.7
2002-07-05 06:27:48 51°9.28 2°36.198 228.2 0.5 70.5 17.7
2002-07-05 06:27:53 51°9.28 2°36.2 228.3 0.6 61.3 17.7
2002-07-05 06:27:58 51°9.281 2°36.201 228.5 0.7 59.6 17.6
2002-07-05 06:28:03 51°9.282 2°36.203 228.3 0.9 57.3 17.7
2002-07-05 06:28:10 51°9.283 2°36.206 229 1 54.8 17.7
2002-07-05 06:28:13 51°9.284 2°36.207 229.7 1.1 54.2 17.7
2002-07-05 06:28:19 51°9.285 2°36.21 230 1.2 53.6 17.7
2002-07-05 06:28:23 51°9.286 2°36.212 230.8 1.4 53.9 17.7
2002-07-05 06:28:28 51°9.287 2°36.214 231.8 1.4 52.4 17.7
2002-07-05 06:28:33 51°9.288 2°36.217 233.2 1.5 52.6 17.7
2002-07-05 06:28:39 51°9.29 2°36.221 234.2 1.6 53.4 17.7
2002-07-05 06:28:44 51°9.291 2°36.224 235.2 1.6 53.9 17.7
2002-07-05 06:28:49 51°9.293 2°36.227 236.2 1.6 52.7 17.7
2002-07-05 06:28:53 51°9.294 2°36.229 237.7 1.6 54.5 17.7
2002-07-05 06:28:59 51°9.296 2°36.233 238.8 1.7 54.7 17.6
2002-07-05 06:29:03 51°9.297 2°36.235 240.2 1.8 54.9 17.6
2002-07-05 06:29:08 51°9.298 2°36.239 241.2 1.9 55.5 17.6
2002-07-05 06:29:13 51°9.3 2°36.243 242.7 2 57.4 17.6
2002-07-05 06:29:19 51°9.302 2°36.247 244 2.1 57.2 17.6
2002-07-05 06:29:23 51°9.303 2°36.25 245.7 2 57.1 17.6
2002-07-05 06:29:29 51°9.305 2°36.255 246.8 2 57.8 17.6
2002-07-05 06:29:34 51°9.306 2°36.258 247.8 2 58.7 17.6
2002-07-05 06:29:38 51°9.307 2°36.261 248.7 1.9 59.2 17.6
2002-07-05 06:29:43 51°9.309 2°36.265 249.3 1.8 59.5 17.7
2002-07-05 06:29:49 51°9.31 2°36.269 250 1.8 58.5 17.6
2002-07-05 06:29:54 51°9.311 2°36.271 250.7 1.6 58.3 17.6
2002-07-05 06:29:58 51°9.312 2°36.274 251.2 1.5 58.4 17.6
2002-07-05 06:30:03 51°9.313 2°36.276 251.5 1.4 57.3 17.6
2002-07-05 06:30:08 51°9.314 2°36.278 252 1.3 55.4 17.7
2002-07-05 06:30:13 51°9.315 2°36.28 252.3 1 50.6 17.7
2002-07-05 06:30:18 51°9.316 2°36.281 252.8 0.8 45.5 17.6
2002-07-05 06:30:23 51°9.316 2°36.281 253.2 0.6 33.7 17.6
2002-07-05 06:30:29 51°9.317 2°36.281 253.3 0.5 21.4 17.6
2002-07-05 06:30:33 51°9.318 2°36.281 253.7 0.4 350.8 17.6
2002-07-05 06:30:39 51°9.318 2°36.28 253.7 0.4 326.6 17.6
2002-07-05 06:30:43 51°9.318 2°36.279 253.7 0.5 305.1 17.6
2002-07-05 06:30:49 51°9.319 2°36.278 253.7 0.6 293.8 17.6
2002-07-05 06:30:53 51°9.319 2°36.276 254 0.8 282.9 17.6
2002-07-05 06:30:59 51°9.319 2°36.273 253.5 0.9 277.1 17.6
2002-07-05 06:31:02 51°9.319 2°36.272 252.5 1 271.1 17.6
2002-07-05 06:31:08 51°9.319 2°36.269 251.5 1.1 269.1 17.6
2002-07-05 06:31:13 51°9.319 2°36.266 250.8 1.2 265.5 17.6
2002-07-05 06:31:19 51°9.319 2°36.264 249.7 1.1 261.9 17.6
2002-07-05 06:31:23 51°9.318 2°36.262 248.5 1.1 259.8 17.6
2002-07-05 06:31:28 51°9.318 2°36.259 247.8 1 261.1 17.6
2002-07-05 06:31:34 51°9.318 2°36.257 247 1 260.6 17.6
2002-07-05 06:31:38 51°9.318 2°36.255 246.2 0.9 258 17.6
2002-07-05 06:31:43 51°9.317 2°36.254 245.2 0.9 255.9 17.7
2002-07-05 06:31:48 51°9.317 2°36.252 244.3 0.8 256.3 17.6
2002-07-05 06:31:53 51°9.317 2°36.25 243.7 0.8 254.4 17.6
2002-07-05 06:31:58 51°9.316 2°36.249 243 0.7 252.9 17.6
2002-07-05 06:32:03 51°9.316 2°36.247 242.7 0.7 255.2 17.6
2002-07-05 06:32:08 51°9.316 2°36.246 242 0.6 251.9 17.6
2002-07-05 06:32:13 51°9.316 2°36.245 241.3 0.6 252 17.6
2002-07-05 06:32:19 51°9.315 2°36.243 241 0.5 251.4 17.6
2002-07-05 06:32:24 51°9.315 2°36.243 240.8 0.5 247.6 17.6
2002-07-05 06:32:28 51°9.315 2°36.242 240.7 0.4 249 17.6
2002-07-05 06:32:33 51°9.315 2°36.241 240.5 0.4 248.7 17.6
2002-07-05 06:32:38 51°9.315 2°36.241 239.7 0.3 246.7 17.6
2002-07-05 06:32:43 51°9.314 2°36.24 239.2 0.3 241.1 17.6
2002-07-05 06:32:48 51°9.314 2°36.239 238.8 0.3 248.8 17.6
2002-07-05 06:32:54 51°9.314 2°36.239 238.8 0.2 254.7 17.6
2002-07-05 06:32:58 51°9.314 2°36.239 238.7 0.2 246.1 17.7
2002-07-05 06:33:03 51°9.314 2°36.239 238.2 0.2 241.6 17.7
2002-07-05 06:33:08 51°9.314 2°36.238 238 0.2 250 17.6
2002-07-05 06:33:13 51°9.314 2°36.238 238 0.1 242.1 17.6
2002-07-05 06:33:19 51°9.314 2°36.238 237.5 0.1 236.8 17.7
2002-07-05 06:33:24 51°9.314 2°36.238 237 0.1 235.3 17.7
2002-07-05 06:33:28 51°9.314 2°36.238 237   258.9 17.7
2002-07-05 06:33:33 51°9.314 2°36.237 236.7   75.7 17.7
2002-07-05 06:33:38 51°9.314 2°36.237 236.2 0.1 68.8 17.7
2002-07-05 06:33:43 51°9.314 2°36.237 235.8 0.1 81.3 17.7
2002-07-05 06:33:48 51°9.314 2°36.237 236 0.1 56.9 17.7
2002-07-05 06:33:54 51°9.314 2°36.238 235.7 0.1 70.5 17.7
2002-07-05 06:33:58 51°9.315 2°36.239 235.2 0.1 82.2 17.6
2002-07-05 06:34:03 51°9.315 2°36.239 234.7 0.2 81.1 17.7
2002-07-05 06:34:08 51°9.315 2°36.239 234.3 0.2 82.3 17.6
2002-07-05 06:34:13 51°9.315 2°36.24 233.5 0.2 83.2 17.7
2002-07-05 06:34:19 51°9.314 2°36.24 233 0.2 82.5 17.7
2002-07-05 06:34:24 51°9.315 2°36.241 232.5 0.2 75.9 17.7
2002-07-05 06:34:28 51°9.315 2°36.241 232.3 0.3 77.8 17.7
2002-07-05 06:34:33 51°9.315 2°36.242 231.8 0.3 76.9 17.7
2002-07-05 06:34:38 51°9.315 2°36.243 231.3 0.3 77.1 17.6
2002-07-05 06:34:43 51°9.315 2°36.243 231.2 0.3 69.8 17.7
2002-07-05 06:34:48 51°9.315 2°36.244 231 0.3 76.5 17.7
2002-07-05 06:34:53 51°9.315 2°36.245 230.2 0.4 77.5 17.7
2002-07-05 06:34:58 51°9.315 2°36.246 229.8 0.4 75 17.6
2002-07-05 06:35:03 51°9.315 2°36.247 230.2 0.4 80.3 17.7
2002-07-05 06:35:09 51°9.316 2°36.248 230 0.4 74.8 17.6
2002-07-05 06:35:13 51°9.316 2°36.249 230 0.4 75.6 17.7
2002-07-05 06:35:18 51°9.316 2°36.25 229.5 0.4 75.1 17.7
2002-07-05 06:35:24 51°9.316 2°36.251 229.2 0.4 70.7 17.7
2002-07-05 06:35:28 51°9.317 2°36.251 229 0.4 69.3 17.7
2002-07-05 06:35:33 51°9.317 2°36.252 228.7 0.4 65.9 17.7
2002-07-05 06:35:38 51°9.317 2°36.253 229 0.3 78.1 17.6
2002-07-05 06:35:43 51°9.317 2°36.253 229 0.2 101.2 17.7
2002-07-05 06:35:48 51°9.316 2°36.253 229.2 0.2 141.6 17.7
2002-07-05 06:35:53 51°9.316 2°36.253 229.2 0.2 188.1 17.7
2002-07-05 06:35:58 51°9.315 2°36.253 229.2 0.3 198.1 17.7
2002-07-05 06:36:03 51°9.315 2°36.252 229 0.5 208 17.7
2002-07-05 06:36:08 51°9.314 2°36.252 229.2 0.6 209.6 17.7
2002-07-05 06:36:13 51°9.314 2°36.251 228.7 0.7 210.1 17.7
2002-07-05 06:36:19 51°9.312 2°36.25 228.5 0.8 211.2 17.7
2002-07-05 06:36:24 51°9.311 2°36.249 228 0.9 212.8 17.7
2002-07-05 06:36:28 51°9.31 2°36.247 227.3 1 212.4 17.7
2002-07-05 06:36:33 51°9.309 2°36.246 227.2 1.1 211.5 17.6
2002-07-05 06:36:38 51°9.307 2°36.245 227.3 1.1 212.3 17.7
2002-07-05 06:36:43 51°9.306 2°36.243 228.8 1.2 215 17.7
2002-07-05 06:36:48 51°9.305 2°36.241 231.2 1.3 219.3 17.7
2002-07-05 06:36:54 51°9.303 2°36.239 233.7 1.3 223 17.7
2002-07-05 06:36:58 51°9.302 2°36.237 236.3 1.4 226 17.7
2002-07-05 06:37:03 51°9.301 2°36.234 239.7 1.4 233.2 17.7
2002-07-05 06:37:08 51°9.3 2°36.232 243 1.3 239.5 17.7
2002-07-05 06:37:13 51°9.3 2°36.23 246.2 1.2 244.3 17.7
2002-07-05 06:37:19 51°9.299 2°36.227 248.2 1.1 249.5 17.7
2002-07-05 06:37:24 51°9.299 2°36.225 250.2 1.1 253.1 17.7
2002-07-05 06:37:28 51°9.299 2°36.223 251.8 1 259 17.7
2002-07-05 06:37:33 51°9.299 2°36.221 253.7 1 259.6 17.7
2002-07-05 06:37:38 51°9.299 2°36.219 254.8 0.9 265.1 17.7
2002-07-05 06:37:43 51°9.299 2°36.217 255.8 0.9 268.8 17.7
2002-07-05 06:37:49 51°9.299 2°36.215 256.8 0.8 272.5 17.7
2002-07-05 06:37:53 51°9.299 2°36.213 257.7 0.8 276.8 17.7
2002-07-05 06:37:59 51°9.299 2°36.212 258.5 0.8 281.1 17.7
2002-07-05 06:38:02 51°9.299 2°36.211 259.5 0.8 284.1 17.7
2002-07-05 06:38:08 51°9.3 2°36.209 260.3 0.8 287.6 17.7
2002-07-05 06:38:13 51°9.3 2°36.207 261.2 0.7 290.7 17.7
2002-07-05 06:38:19 51°9.301 2°36.205 261.8 0.7 294.5 17.7
2002-07-05 06:38:23 51°9.301 2°36.204 262.7 0.7 298.2 17.6
2002-07-05 06:38:29 51°9.302 2°36.203 263.2 0.7 299 17.6
2002-07-05 06:38:34 51°9.302 2°36.201 264 0.7 303.8 17.6
2002-07-05 06:38:38 51°9.303 2°36.2 264.7 0.7 307.9 17.6
2002-07-05 06:38:43 51°9.303 2°36.199 265.2 0.7 311.6 17.6
2002-07-05 06:38:48 51°9.304 2°36.198 265.7 0.7 313.9 17.6
2002-07-05 06:38:53 51°9.305 2°36.197 266.2 0.7 316.2 17.6
2002-07-05 06:38:59 51°9.306 2°36.196 266.5 0.7 318.1 17.6
2002-07-05 06:39:03 51°9.306 2°36.195 266.8 0.7 321.7 17.6
2002-07-05 06:39:08 51°9.307 2°36.194 267.2 0.7 323 17.6
2002-07-05 06:39:13 51°9.308 2°36.194 267.2 0.7 325.9 17.6
2002-07-05 06:39:18 51°9.309 2°36.193 267.3 0.7 328.6 17.6
2002-07-05 06:39:23 51°9.31 2°36.192 267.5 0.7 331.1 17.6
2002-07-05 06:39:28 51°9.31 2°36.192 267.3 0.7 332.8 17.6
2002-07-05 06:39:33 51°9.311 2°36.191 267.5 0.6 335.8 17.6
2002-07-05 06:39:39 51°9.312 2°36.191 267.3 0.7 338.2 17.6
2002-07-05 06:39:43 51°9.313 2°36.19 267.2 0.7 340.7 17.6
2002-07-05 06:39:48 51°9.314 2°36.19 267.2 0.7 342.2 17.6
2002-07-05 06:39:54 51°9.315 2°36.189 267.3 0.7 344.4 17.6
2002-07-05 06:39:59 51°9.316 2°36.189 267.3 0.7 346.1 17.7
2002-07-05 06:40:03 51°9.317 2°36.189 267.3 0.7 348 17.6
2002-07-05 06:40:09 51°9.318 2°36.188 267 0.6 348.6 17.6
2002-07-05 06:40:13 51°9.318 2°36.188 266.7 0.6 350.2 17.7
2002-07-05 06:40:19 51°9.32 2°36.188 266 0.6 354.2 17.7
2002-07-05 06:40:23 51°9.32 2°36.188 265.5 0.6   17.6
2002-07-05 06:40:28 51°9.321 2°36.188 265.3 0.6 4.6 17.6
2002-07-05 06:40:33 51°9.322 2°36.188 265.3 0.6 8.5 17.6
2002-07-05 06:40:39 51°9.323 2°36.189 265.2 0.6 11.8 17.6
2002-07-05 06:40:43 51°9.324 2°36.189 265 0.7 20.8 17.7
2002-07-05 06:40:48 51°9.325 2°36.19 265.5 0.8 36.9 17.8
2002-07-05 06:40:53 51°9.326 2°36.192 265.8 0.9 41.7 17.8
2002-07-05 06:40:59 51°9.327 2°36.193 265.8 0.9 42.8 17.5
2002-07-05 06:41:03 51°9.327 2°36.194 265.8 0.9 42 17.7
2002-07-05 06:41:08 51°9.328 2°36.196 265.8 0.9 43.4 17.8
2002-07-05 06:41:13 51°9.33 2°36.197 265.7 0.9 42.3 17.8
2002-07-05 06:41:18 51°9.33 2°36.198 265.5 0.9 41.1 17.7
2002-07-05 06:41:23 51°9.331 2°36.2 265.5 0.9 40.4 17.7
2002-07-05 06:41:28 51°9.332 2°36.201 265.7 0.9 41.2 17.9
2002-07-05 06:41:33 51°9.333 2°36.202 265.5 0.9 40.7 17.8
2002-07-05 06:41:39 51°9.334 2°36.204 264.8 0.9 42.8 17.7
2002-07-05 06:41:43 51°9.335 2°36.205 264 0.9 41.7 17.6
2002-07-05 06:41:49 51°9.336 2°36.207 263 0.9 39.5 17.6
2002-07-05 06:41:53 51°9.337 2°36.207 261.8 0.8 35.7 17.5
2002-07-05 06:41:59 51°9.338 2°36.208 260 0.7 28.8 17.7
2002-07-05 06:42:03 51°9.339 2°36.208 257.2 0.6 16.8 17.8
2002-07-05 06:42:08 51°9.339 2°36.208 254.2 0.5 11.8 18
2002-07-05 06:42:14 51°9.34 2°36.208 251 0.3 1.4 18
2002-07-05 06:42:19 51°9.34 2°36.208 247.8 0.3 350.3 18
2002-07-05 06:42:23 51°9.34 2°36.208 244.3 0.2 334.5 18
2002-07-05 06:42:28 51°9.34 2°36.208 241.2 0.1 312.9 18
2002-07-05 06:42:34 51°9.34 2°36.207 237.7 0.1 263.1 18
2002-07-05 06:42:39 51°9.34 2°36.207 234.5 0.1 218 18
2002-07-05 06:42:43 51°9.34 2°36.207 231.5 0.2 207.4 17.8
2002-07-05 06:42:48 51°9.339 2°36.207 228.8 0.3 197.1 17.6
2002-07-05 06:42:54 51°9.339 2°36.207 225.5 0.4 185.8 17.6
2002-07-05 06:42:59 51°9.338 2°36.207 222.3 0.4 180.9 17.6
2002-07-05 06:43:03 51°9.337 2°36.207 219.3 0.5 174.8 17.6
2002-07-05 06:43:08 51°9.337 2°36.207 216.3 0.6 172.7 17.6
2002-07-05 06:43:14 51°9.336 2°36.208 212.8 0.7 166.4 17.7
2002-07-05 06:43:19 51°9.335 2°36.208 209.8 0.8 166.1 17.7
2002-07-05 06:43:23 51°9.334 2°36.209 206.7 0.9 162.6 17.7
2002-07-05 06:43:29 51°9.332 2°36.21 204.5 1 160.9 17.8
2002-07-05 06:43:33 51°9.331 2°36.21 202.5 1.1 161.8 17.8
2002-07-05 06:43:38 51°9.33 2°36.211 201.3 1.2 162.5 17.8
2002-07-05 06:43:44 51°9.328 2°36.212 200.3 1.2 164.2 17.6
2002-07-05 06:43:50 51°9.325 2°36.213 199.5 1.4 166 17.7
2002-07-05 06:43:54 51°9.324 2°36.213 198.7 1.5 166.8 17.7
2002-07-05 06:44:00 51°9.322 2°36.215 198.3 1.5 165.1 17.6
2002-07-05 06:44:03 51°9.321 2°36.215 197.3 1.5 162.9 17.7
2002-07-05 06:44:09 51°9.318 2°36.216 197 1.4 161.5 17.7
2002-07-05 06:44:13 51°9.317 2°36.217 197 1.5 160 17.7
2002-07-05 06:44:19 51°9.314 2°36.219 196.2 1.5 159.8 17.7
2002-07-05 06:44:23 51°9.313 2°36.22 194 1.6 157.3 17.7
2002-07-05 06:44:29 51°9.31 2°36.222 192 1.6 156.5 17.8
2002-07-05 06:44:33 51°9.309 2°36.223 189.8 1.6 153.3 17.8
2002-07-05 06:44:39 51°9.306 2°36.225 187.3 1.6 150.8 17.8
2002-07-05 06:44:43 51°9.305 2°36.227 185 1.7 147.1 17.8
2002-07-05 06:44:48 51°9.303 2°36.229 182.3 1.7 144.5 17.8
2002-07-05 06:44:53 51°9.301 2°36.231 179.7 1.7 141.7 17.8
2002-07-05 06:44:59 51°9.299 2°36.234 176.8 1.8 138.7 17.8
2002-07-05 06:45:03 51°9.297 2°36.237 173.2 1.9 135.3 17.8
2002-07-05 06:45:09 51°9.295 2°36.241 169.8 1.9 132.9 17.8
2002-07-05 06:45:14 51°9.293 2°36.245 166.5 1.9 127.7 17.8
2002-07-05 06:45:18 51°9.292 2°36.247 163.7 1.9 123.6 17.8
2002-07-05 06:45:23 51°9.291 2°36.251 161.3 1.9 119.1 17.8
2002-07-05 06:45:29 51°9.29 2°36.255 160.2 1.8 116.5 17.8
2002-07-05 06:45:34 51°9.289 2°36.258 159.5 1.7 110.7 17.8
2002-07-05 06:45:39 51°9.289 2°36.262 159.3 1.5 101.4 17.8
2002-07-05 06:45:43 51°9.289 2°36.264 159.5 1.4 89.8 17.8
2002-07-05 06:45:49 51°9.29 2°36.267 160.2 1.3 78 17.8
2002-07-05 06:45:53 51°9.291 2°36.269 160.7 1.3 61.5 17.8
2002-07-05 06:45:59 51°9.293 2°36.272 161.2 1.4 52.4 17.8